[[{"header":{"parameterUnit":"m.s-1","parameterCategory":1,"la1":30.2991,"la2":30.254,"lo1":-89.0895,"lo2":-89.0444,"dy":0.0017,"dx":0.0017,"nx":28,"ny":28,"refTime":"2025-11-24T09:00:00:Z","depth":0,"parameterNumber":2,"parameterNumberName":"U-component_of_WINDS"},"data":[0,0,0,0,0,0,0,0,0,0,0,0,0,0,0,0,0,0,0,0,0,0,0,0,0,0,0,0,0,0,0,0,0,0,0,0,0,0,0,0,0,0,0,0,0,0,0,0,0,0,0,0,0,0,0,0,0,0,-3.752,-3.7521,0,-3.7599,-3.76,-3.76,-3.7551,-3.7548,-3.7546,-3.7544,-3.7623,-3.7627,-3.7632,0,0,0,0,0,0,0,0,0,0,0,0,0,-3.7328,-3.7331,-3.752,-3.7521,-3.7522,-3.7599,-3.76,-3.7601,-3.7551,-3.7548,-3.7546,-3.7543,-3.7622,-3.7627,-3.7632,0,0,0,0,0,0,0,0,0,0,0,0,0,-3.7409,-3.7333,-3.752,-3.7507,-3.7506,-3.7598,-3.76,-3.7601,-3.7552,-3.7548,-3.7545,-3.7542,-3.762,-3.7626,-3.7633,-3.7742,0,0,-3.7652,-3.7655,0,0,0,0,0,0,0,0,-3.7405,-3.7416,-3.7508,-3.7508,-3.7507,-3.7561,-3.7561,-3.7648,-3.7553,-3.7534,-3.7544,-3.754,-3.7605,-3.7613,-3.7635,-3.7746,-3.7749,-3.7653,-3.7657,-3.766,-3.7661,0,0,0,0,0,0,0,-3.7399,-3.7413,-3.7551,-3.7509,-3.7509,-3.7497,-3.7505,-3.7577,-3.7588,-3.7536,-3.7532,-3.7542,-3.7605,-3.7629,-3.7637,-3.775,-3.7653,-3.7658,-3.7662,-3.7665,-3.7955,-3.7959,0,0,0,0,0,0,-3.7394,-3.7408,-3.7549,-3.7553,-3.7446,-3.7503,-3.7512,-3.7548,-3.7588,-3.759,-3.7545,-3.754,-3.762,-3.7629,-3.7639,-3.777,-3.7659,-3.7666,-3.7669,-3.7951,-3.7956,-3.796,0,0,0,0,0,0,-3.739,-3.7407,-3.7545,-3.748,-3.7497,-3.751,-3.7551,-3.7551,-3.7575,-3.7595,-3.7596,-3.7568,-3.7617,-3.763,-3.7717,-3.7772,-3.7668,-3.7674,-3.7947,-3.7953,-3.7958,-3.8031,0,0,0,0,0,0,-3.7385,-3.7406,-3.7448,-3.7481,-3.75,-3.7622,-3.7554,-3.7555,-3.7587,-3.758,-3.7617,-3.7619,-3.7616,-3.7708,-3.7723,-3.7779,-3.7679,-3.7942,-3.7949,-3.7956,-3.8024,-3.8039,-3.8052,0,0,0,0,0,-3.7378,-3.7465,-3.745,-3.7467,-3.7552,-3.7625,-3.7636,-3.763,-3.7591,-3.7633,-3.7646,-3.7618,-3.7764,-3.7717,-3.7734,-3.7792,-3.7938,-3.7947,-3.7956,-3.8018,-3.8036,-3.8051,0,0,0,0,0,0,-3.7437,-3.7469,-3.7453,-3.7553,-3.7587,-3.7617,-3.7669,-3.765,-3.7695,-3.7687,-3.7678,-3.7687,-3.7778,-3.7794,-3.7741,-3.79,-3.7845,-3.7857,-3.7886,-3.7904,-3.7917,-3.7911,-3.7685,0,0,0,0,0,-3.7461,-3.7518,-3.7543,-3.7629,-3.7647,-3.7655,-3.7687,-3.768,-3.7714,-3.7728,-3.7747,-3.7782,-3.7835,-3.7871,-3.7921,-3.8027,-3.8034,-3.8076,-3.8089,-3.8101,-3.8111,-3.8168,-3.8187,-3.7989,-3.7989,-3.7988,0,0,-3.7512,-3.7537,-3.7573,-3.7641,-3.7666,-3.7725,-3.7668,-3.7732,-3.7775,-3.7738,-3.7821,-3.7837,-3.7875,-3.7972,-3.8015,-3.7988,-3.8168,-3.8112,-3.812,-3.8125,-3.8179,-3.8198,-3.8215,-3.7994,-3.7993,-3.7992,0,0,-3.7635,-3.766,-3.7734,-3.7761,-3.7801,-3.7806,-3.7824,-3.7858,-3.7867,-3.795,-3.7924,-3.7975,-3.8068,-3.8096,-3.8122,-3.8258,-3.8234,-3.8275,-3.8346,-3.8403,-3.8418,-3.8432,-3.848,-3.8497,-3.8286,-3.8286,-3.8286,0,-3.7693,-3.778,-3.7774,-3.7841,-3.7872,-3.7842,-3.7917,-3.7944,-3.7998,-3.802,-3.7989,-3.8105,-3.8128,-3.8231,-3.8265,-3.8288,-3.8308,-3.827,-3.8417,-3.843,-3.8443,-3.8488,-3.8507,-3.8291,-3.829,-3.829,-3.8289,0,-3.7849,-3.7911,-3.7966,-3.8019,-3.8057,-3.8127,-3.8132,-3.8171,-3.8162,-3.8171,-3.8256,-3.8284,-3.8339,-3.8364,-3.8355,-3.8467,-3.8448,-3.8417,-3.8361,-3.8467,-3.8509,-3.8527,-3.8297,-3.8296,-3.8294,-3.8293,0,0,-3.8008,-3.8059,-3.8079,-3.8104,-3.8146,-3.8193,-3.8264,-3.8318,-3.8351,-3.8391,-3.8449,-3.8529,-3.8501,-3.8531,-3.8525,-3.8575,-3.8681,-3.8538,-3.8539,-3.8562,-3.8805,-3.8826,-3.8847,-3.8666,-3.8669,-3.8672,-3.8801,0,-3.8132,-3.8254,-3.8252,-3.8365,-3.8421,-3.8395,-3.8456,-3.8489,-3.85,-3.855,-3.8562,-3.8618,-3.8577,-3.8595,-3.8643,-3.8657,-3.8729,-3.8648,-3.8719,-3.8722,-3.8709,-3.8869,-3.8892,-3.9012,-3.8818,-3.8821,-3.8823,0,-3.8293,-3.8338,-3.8457,-3.8492,-3.8516,-3.857,-3.8621,-3.8669,-3.8706,-3.8711,-3.8746,-3.8733,-3.8804,-3.8748,-3.8846,-3.8791,-3.882,-3.8832,-3.8837,-3.8841,-3.8777,-3.8877,-3.9051,-3.9068,-3.8849,-3.8847,-3.8845,0,-3.8395,-3.8486,-3.8569,-3.8591,-3.8634,-3.8673,-3.8693,-3.8727,-3.8761,-3.8806,-3.8827,-3.888,-3.8908,-3.8949,-3.8951,-3.891,-3.905,-3.8994,-3.9055,-3.9055,-3.9084,-3.9082,-3.9263,-3.9106,-3.9106,-3.9105,-3.9105,0,-3.8533,-3.8606,-3.8616,-3.8666,-3.8748,-3.8746,-3.8827,-3.8843,-3.8874,-3.8927,-3.8909,-3.896,-3.896,-3.9012,-3.9014,-3.9095,-3.9108,-3.9113,-3.9112,-3.9114,-3.9113,-3.9131,-3.9122,-3.911,-3.9109,-3.9108,-3.9107,0,-3.866,-3.8669,-3.8758,-3.8793,-3.8803,-3.8862,-3.8892,-3.894,-3.895,-3.9019,-3.9035,-3.905,-3.9111,-3.9117,-3.9188,-3.9189,-3.9286,-3.9277,-3.9273,-3.9271,-3.9332,-3.9326,-3.953,-3.9557,-3.9384,-3.9386,-3.9387,0,-3.8746,-3.8802,-3.8844,-3.8879,-3.8901,-3.8957,-3.8992,-3.8992,-3.9029,-3.9077,-3.912,-3.9179,-3.9225,-3.9323,-3.9341,-3.9395,-3.9386,-3.9454,-3.9394,-3.9394,-3.9386,-3.9382,-3.9387,-3.9465,-3.9467,-3.9469,-3.947,0,-3.8898,-3.8901,-3.8951,-3.9004,-3.9046,-3.9088,-3.9127,-3.9157,-3.9162,-3.9205,-3.9266,-3.9303,-3.9375,-3.9434,-3.9487,-3.9508,-3.949,-3.9489,-3.9506,-3.9507,-3.9502,-3.9504,-3.9303,-3.9484,-3.9483,-3.9482,-3.9481,-3.948,-3.9007,-3.9055,-3.9092,-3.915,-3.918,-3.9217,-3.9264,-3.9281,-3.9333,-3.9392,-3.939,-3.9458,-3.9495,-3.9565,-3.959,-3.9643,-3.9621,-3.9645,-3.9651,-3.9657,-3.9662,-3.9496,-3.9653,-3.9653,-3.9653,-3.9652,-3.9652,0,-3.9156,-3.918,-3.9233,-3.9288,-3.9334,-3.9315,-3.9357,-3.9396,-3.9457,-3.9493,-3.954,-3.9612,-3.9669,-3.9692,-3.9748,-3.9787,-3.978,-3.9801,-3.9797,-3.9802,-3.968,-3.9659,-3.9806,-3.9806,-3.9806,-3.9806,-3.9806,-3.9806,-3.9239,-3.9321,-3.9328,-3.9424,-3.9447,-3.9514,-3.954,-3.9574,-3.9603,-3.9684,-3.9732,-3.9747,-3.9779,-3.9837,-3.9889,-3.9895,-3.9915,-3.994,-3.9942,-3.9827,-3.9811,-3.9796,-3.9776,-3.9945,-3.9945,-4.0059,-4.006,-4.0061]},{"header":{"parameterUnit":"m.s-1","parameterCategory":1,"la1":30.2991,"la2":30.254,"lo1":-89.0895,"lo2":-89.0444,"dy":0.0017,"dx":0.0017,"nx":28,"ny":28,"refTime":"2025-11-24T09:00:00:Z","depth":0,"parameterNumber":3,"parameterNumberName":"V-component_of_WINDS"},"data":[0,0,0,0,0,0,0,0,0,0,0,0,0,0,0,0,0,0,0,0,0,0,0,0,0,0,0,0,0,0,0,0,0,0,0,0,0,0,0,0,0,0,0,0,0,0,0,0,0,0,0,0,0,0,0,0,0,0,0.477,0.4771,0,0.4813,0.4813,0.4814,0.4861,0.4862,0.4863,0.4863,0.4903,0.4904,0.4904,0,0,0,0,0,0,0,0,0,0,0,0,0,0.4728,0.4729,0.477,0.4771,0.4771,0.4813,0.4813,0.4814,0.4861,0.4862,0.4863,0.4864,0.4903,0.4904,0.4904,0,0,0,0,0,0,0,0,0,0,0,0,0,0.4756,0.4729,0.477,0.48,0.4803,0.4813,0.4813,0.4814,0.4861,0.4862,0.4863,0.4864,0.4903,0.4904,0.4904,0.4887,0,0,0.4906,0.4906,0,0,0,0,0,0,0,0,0.4754,0.4758,0.4795,0.4798,0.4801,0.4833,0.4813,0.4838,0.4861,0.4839,0.4863,0.4865,0.4879,0.4881,0.4887,0.4888,0.489,0.4906,0.4906,0.4907,0.4907,0,0,0,0,0,0,0,0.4753,0.4756,0.4787,0.4795,0.4799,0.4811,0.4816,0.4818,0.4852,0.4841,0.4844,0.4849,0.4881,0.4886,0.4888,0.4891,0.4906,0.4907,0.4907,0.4907,0.4884,0.4883,0,0,0,0,0,0,0.4746,0.4754,0.4786,0.4788,0.478,0.4811,0.4816,0.4822,0.4852,0.4858,0.4848,0.4851,0.4885,0.4887,0.489,0.4874,0.4907,0.4907,0.4908,0.4885,0.4883,0.4882,0,0,0,0,0,0,0.4745,0.4749,0.4784,0.4772,0.4778,0.481,0.4816,0.4822,0.4828,0.4858,0.4864,0.4848,0.4886,0.4889,0.4888,0.4876,0.4908,0.4908,0.4886,0.4884,0.4883,0.484,0,0,0,0,0,0,0.4744,0.4748,0.4742,0.4772,0.4778,0.4782,0.4815,0.4822,0.4829,0.4833,0.4859,0.4864,0.4887,0.4887,0.4889,0.4877,0.4909,0.4887,0.4885,0.4883,0.4843,0.4837,0.4833,0,0,0,0,0,0.4742,0.4726,0.4741,0.4745,0.4771,0.4781,0.4784,0.4812,0.4828,0.4822,0.4842,0.4863,0.4877,0.4886,0.4889,0.4877,0.4888,0.4886,0.4883,0.4845,0.4838,0.4833,0,0,0,0,0,0,0.4692,0.4731,0.4748,0.4741,0.4758,0.4789,0.4782,0.4803,0.4814,0.4818,0.485,0.4855,0.4851,0.4864,0.4874,0.4864,0.4886,0.4884,0.4856,0.4849,0.4845,0.4842,0.4909,0,0,0,0,0,0.468,0.4686,0.4719,0.471,0.4718,0.4749,0.4754,0.4774,0.4791,0.4798,0.4818,0.4834,0.4842,0.4846,0.4855,0.4845,0.4852,0.4838,0.4833,0.4829,0.4827,0.4825,0.482,0.4875,0.4875,0.4875,0,0,0.4656,0.4678,0.4679,0.4701,0.4716,0.4721,0.4754,0.4757,0.4761,0.4798,0.48,0.4815,0.4835,0.483,0.4829,0.484,0.4814,0.4826,0.4822,0.4823,0.4823,0.4817,0.4813,0.4873,0.4874,0.4874,0,0,0.4615,0.4631,0.4627,0.4642,0.4666,0.4687,0.4686,0.4715,0.4727,0.4729,0.4758,0.4763,0.4776,0.479,0.4798,0.4766,0.4787,0.4768,0.4742,0.474,0.4735,0.4732,0.4722,0.4718,0.4766,0.4766,0.4765,0,0.4581,0.4591,0.4622,0.4625,0.4634,0.467,0.4667,0.468,0.4704,0.471,0.4723,0.4742,0.4757,0.4758,0.4751,0.4755,0.4756,0.4765,0.4734,0.473,0.4727,0.4719,0.4715,0.4763,0.4763,0.4764,0.4764,0,0.455,0.4556,0.455,0.4575,0.4584,0.4583,0.4615,0.462,0.4639,0.4659,0.4662,0.4683,0.4698,0.4699,0.4717,0.4703,0.471,0.4728,0.4751,0.4719,0.4712,0.4709,0.476,0.4761,0.4761,0.4762,0,0,0.4476,0.4522,0.4519,0.4532,0.4562,0.4568,0.4569,0.4586,0.4591,0.4607,0.461,0.4621,0.4639,0.4649,0.4669,0.4667,0.4643,0.4686,0.4687,0.4679,0.4632,0.4619,0.4615,0.4658,0.4657,0.4656,0.4631,0,0.4442,0.4449,0.4478,0.4476,0.4484,0.4519,0.4521,0.454,0.4559,0.4568,0.4588,0.4597,0.4618,0.4625,0.4625,0.4646,0.4635,0.4648,0.4661,0.4661,0.4657,0.461,0.4597,0.4571,0.4628,0.4627,0.4627,0,0.4402,0.4419,0.4418,0.4451,0.4455,0.4456,0.4476,0.4483,0.4506,0.452,0.4533,0.4556,0.4561,0.4582,0.459,0.4598,0.4606,0.4617,0.4617,0.462,0.4643,0.4614,0.4563,0.456,0.4622,0.4622,0.4623,0,0.4351,0.4373,0.4377,0.4387,0.4424,0.4425,0.444,0.4464,0.4473,0.449,0.4497,0.4512,0.4521,0.4533,0.4561,0.4573,0.4566,0.4589,0.4579,0.4578,0.4576,0.4576,0.4528,0.4578,0.4578,0.4578,0.4578,0,0.431,0.4309,0.4355,0.4357,0.4358,0.4392,0.4391,0.441,0.4431,0.4438,0.4468,0.4474,0.451,0.4519,0.4541,0.4545,0.4548,0.456,0.4566,0.4558,0.4557,0.4564,0.4567,0.4577,0.4577,0.4577,0.4578,0,0.4254,0.4285,0.4292,0.4328,0.4337,0.4336,0.4367,0.437,0.4392,0.4401,0.4404,0.4438,0.4452,0.4481,0.4501,0.4516,0.4515,0.4525,0.4508,0.4512,0.4501,0.4502,0.4457,0.4453,0.4504,0.4503,0.4503,0,0.4227,0.4227,0.4265,0.4272,0.4287,0.4299,0.4309,0.4343,0.4353,0.438,0.4381,0.4397,0.4412,0.4432,0.4458,0.4474,0.4486,0.4469,0.4488,0.4481,0.4488,0.4488,0.4489,0.4464,0.4464,0.4463,0.4462,0,0.4175,0.4192,0.4206,0.4227,0.4239,0.4256,0.4275,0.428,0.4318,0.4327,0.4343,0.4354,0.4377,0.4393,0.4414,0.443,0.4453,0.4456,0.4455,0.4448,0.4439,0.4446,0.4498,0.4457,0.4458,0.4458,0.4458,0.4459,0.4134,0.4138,0.4165,0.4181,0.42,0.4218,0.4224,0.4248,0.4262,0.4284,0.4303,0.4317,0.4342,0.4373,0.4387,0.4399,0.441,0.4407,0.4407,0.4407,0.4404,0.4436,0.4402,0.4403,0.4403,0.4403,0.4403,0,0.4087,0.4107,0.4121,0.4149,0.4162,0.4184,0.4207,0.4216,0.4228,0.425,0.4265,0.4284,0.4301,0.4329,0.4348,0.4352,0.4363,0.4356,0.4357,0.4361,0.4392,0.4392,0.4347,0.4347,0.4347,0.4347,0.4347,0.4347,0.4063,0.4071,0.4091,0.4108,0.4129,0.4144,0.4156,0.4173,0.4191,0.4211,0.4226,0.4245,0.427,0.4291,0.4308,0.4316,0.4322,0.4312,0.4323,0.4353,0.4358,0.4363,0.4363,0.4313,0.4313,0.4291,0.4291,0.4291]}]]